Wind_Speed
51 50 48 47 45 43 41 39 38 34 29 30 33 35 35 34 34 34 34 34 35 36 38 41 43 46 48 50 52 53 56 59 62 65 71 74 73 69
52 50 48 45 43 41 39 37 37 34 27 25 28 30 31 30 30 30 30 30 30 31 33 35 38 40 42 44 47 50 53 57 59 61 65 71 73 71
52 49 46 44 41 39 37 36 34 32 27 22 24 26 27 27 27 27 26 25 25 26 27 28 29 31 33 36 40 44 49 54 57 58 60 67 72 72
49 47 44 42 40 38 35 33 32 30 26 21 22 23 24 25 24 23 23 22 21 22 22 22 23 25 28 31 34 38 42 48 52 55 57 61 67 71
45 43 41 40 38 36 33 31 30 28 25 21 20 22 22 22 21 21 20 18 18 18 18 19 21 23 25 28 31 34 37 42 47 51 53 57 63 68
42 40 38 36 34 32 31 29 27 25 23 20 19 20 20 20 19 18 17 16 15 15 16 17 20 22 24 27 29 32 34 37 42 47 50 54 59 64
40 39 36 33 31 29 27 25 24 22 20 18 17 17 17 17 16 15 14 13 13 13 15 17 19 20 19 20 21 25 29 33 37 42 47 52 56 60
37 36 33 30 27 24 22 20 19 17 16 15 14 14 13 13 13 13 12 11 10 11 13 15 15 12 11 10 12 17 24 28 33 38 44 49 54 58
35 33 29 26 23 20 18 16 15 13 12 12 11 11 10 9 10 10 9 7 6 9 11 10 9 8 5 2 10 15 20 26 30 36 43 49 53 57
32 29 25 22 20 16 14 12 11 9 8 8 7 6 6 6 8 9 7 4 3 6 8 7 7 7 7 11 15 17 21 26 31 38 45 50 52 53
28 25 22 18 15 12 11 10 9 7 6 5 4 3 3 5 8 8 6 2 1 3 5 7 10 12 15 17 20 24 28 33 37 42 46 48 48 49
24 22 18 13 10 9 9 9 9 7 7 6 6 5 6 8 9 8 6 5 4 5 7 10 13 16 18 22 26 30 35 38 42 45 46 46 45 44
21 18 13 7 6 9 10 10 10 9 9 9 9 10 10 10 10 9 8 7 6 8 11 14 17 20 21 25 29 31 35 39 43 45 44 43 42 40
16 12 6 3 7 11 12 12 12 12 13 12 12 12 12 11 11 10 9 9 10 12 16 18 20 21 23 26 29 31 34 37 40 41 41 40 39 37
10 6 1 5 10 13 14 14 15 15 15 14 12 12 12 12 12 11 11 12 14 17 20 22 22 23 24 25 27 29 31 33 34 34 35 35 35 35
5 1 4 8 13 15 17 17 18 18 16 14 13 12 12 12 12 12 13 15 18 21 23 25 25 26 26 26 25 27 28 29 30 31 32 31 31 31
4 5 8 11 15 18 19 19 19 19 17 16 15 14 13 13 14 15 17 20 23 25 25 26 27 27 28 26 25 25 25 26 27 28 28 28 27 26
6 8 11 13 17 20 21 21 20 19 18 16 15 15 14 14 15 17 20 24 27 27 26 26 25 25 26 26 25 23 23 23 24 26 27 26 24 22
9 11 13 16 19 21 22 22 21 20 18 17 16 15 15 15 17 20 24 27 29 29 28 27 26 24 21 20 22 24 23 22 22 23 23 23 22 22
10 12 14 17 19 21 22 22 21 20 18 16 15 16 16 17 19 22 25 28 28 28 27 26 24 24 22 20 18 18 20 22 22 21 21 21 24 25
11 13 15 17 18 20 20 21 20 19 17 16 15 16 16 17 19 23 26 27 27 26 25 23 22 21 21 20 17 16 16 18 22 25 25 26 27 27
12 14 15 17 18 18 19 19 19 19 18 17 16 16 16 18 19 22 24 25 24 23 22 20 19 17 17 18 19 19 19 20 21 23 25 26 27 27
12 14 15 16 16 17 18 18 18 18 18 18 17 17 17 18 19 20 21 21 20 19 18 17 16 15 15 17 20 22 23 24 25 26 26 25 24 24
Wind_Direction
303 299 295 292 291 290 292 292 292 291 288 279 271 269 269 269 269 271 271 271 270 267 267 265 262 257 253 250 247 243 239 236 234 232 228 223 219 216
304 299 295 291 288 286 288 291 292 293 291 279 270 268 269 269 270 272 273 273 272 271 269 267 263 258 253 250 246 242 237 233 231 230 228 223 218 214
306 301 295 290 287 284 285 287 290 291 291 280 270 267 267 269 271 272 272 271 272 272 272 270 264 258 253 249 246 241 236 231 229 227 226 223 218 213
306 302 296 290 285 282 282 284 286 288 287 279 271 269 268 269 271 270 269 268 270 273 274 271 266 262 257 252 247 241 235 230 226 223 222 220 217 213
307 304 299 292 285 281 280 281 283 284 283 278 270 268 270 271 269 266 262 262 268 272 276 276 273 269 262 256 249 241 233 227 223 220 218 215 214 211
308 306 302 295 287 280 278 278 279 280 279 276 270 268 271 270 265 260 257 258 265 272 280 283 281 276 269 259 250 238 229 222 218 214 212 209 208 208
308 307 304 298 290 281 276 274 274 275 273 274 272 270 269 267 260 252 250 254 265 278 289 294 294 291 280 266 248 230 218 213 209 208 205 202 200 201
307 307 304 299 292 283 275 269 267 264 265 271 272 269 269 263 250 242 242 250 268 290 304 310 312 307 295 266 226 210 202 200 198 197 195 192 191 194
305 306 302 297 291 281 272 264 257 255 261 264 265 264 264 251 235 225 227 243 273 305 318 327 336 338 332 204 174 173 179 183 183 184 182 180 182 187
305 305 302 295 287 274 262 253 245 246 250 252 252 255 249 230 210 203 206 228 293 329 345 6 27 53 81 116 129 140 152 160 165 168 168 170 174 181
306 306 303 294 281 261 243 232 225 225 226 220 214 206 194 178 174 174 172 158 49 22 38 67 80 98 105 114 122 129 136 144 149 152 156 161 168 175
308 307 302 288 265 234 215 203 199 196 187 175 157 139 136 142 147 150 144 125 102 87 96 99 106 117 116 117 119 125 130 136 141 145 150 157 165 172
312 310 300 274 224 195 185 179 176 173 167 158 147 137 135 137 138 138 134 126 117 116 120 118 119 122 123 123 122 126 131 137 143 146 150 156 163 169
315 311 294 218 175 169 166 164 162 161 156 149 143 139 137 138 138 136 135 131 131 128 129 126 124 124 126 129 127 130 135 139 145 150 154 158 163 165
321 314 231 153 154 156 155 154 153 153 151 146 142 141 143 143 142 141 140 138 137 135 132 129 127 127 127 128 129 132 137 142 148 154 158 160 165 168
340 56 126 136 145 148 150 151 151 150 146 143 142 144 146 145 144 143 141 141 140 138 136 134 132 128 128 131 133 135 139 147 154 159 163 166 169 174
62 100 117 131 141 144 146 148 149 148 144 140 139 139 140 139 138 138 141 142 140 139 138 137 137 134 134 136 141 144 148 154 158 162 167 172 177 182
81 98 115 128 138 143 146 146 146 145 143 141 140 138 136 134 133 135 139 141 140 139 138 137 136 137 140 143 147 152 156 162 168 172 175 177 179 181
87 99 116 128 136 141 146 148 149 148 144 140 139 138 134 131 132 135 138 139 140 141 140 139 138 138 142 148 152 154 155 158 163 168 170 169 168 170
94 103 118 129 137 141 146 151 153 152 147 141 140 139 134 131 132 136 139 140 141 143 144 144 146 146 145 147 152 158 161 161 163 165 168 169 166 165
102 106 119 130 138 144 149 153 156 157 154 149 144 142 136 132 134 137 140 142 144 146 148 150 153 154 151 149 152 159 168 172 170 168 167 166 165 165
108 110 118 131 140 146 151 155 158 159 158 155 151 146 141 137 136 140 143 145 148 150 153 157 162 165 164 161 162 165 167 168 168 168 167 167 166 165
114 116 118 128 140 148 154 156 158 159 159 159 156 150 145 141 140 142 146 149 152 155 159 162 166 170 174 174 170 168 167 167 166 166 166 167 168 169
Height
5611 5605 5599 5594 5589 5584 5580 5575 5572 5571 5571 5567 5563 5562 5562 5563 5563 5563 5564 5564 5564 5564 5563 5563 5563 5564 5565 5568 5572 5577 5583 5591 5600 5609 5621 5634 5649 5663
5598 5592 5586 5581 5577 5573 5570 5566 5562 5560 5560 5558 5555 5553 5553 5553 5554 5554 5554 5554 5553 5552 5551 5550 5549 5549 5550 5552 5555 5560 5566 5574 5584 5593 5604 5618 5633 5648
5585 5579 5573 5569 5565 5562 5560 5557 5554 5551 5551 5550 5547 5546 5545 5546 5546 5546 5546 5545 5544 5543 5541 5539 5538 5537 5537 5539 5541 5545 5550 5558 5568 5578 5589 5603 5618 5635
5573 5566 5561 5556 5553 5551 5549 5548 5546 5544 5543 5542 5540 5539 5539 5539 5539 5539 5538 5537 5536 5535 5533 5531 5529 5528 5528 5528 5530 5533 5537 5544 5553 5564 5576 5590 5606 5621
5561 5554 5549 5544 5541 5540 5539 5538 5537 5536 5535 5534 5534 5532 5532 5532 5532 5532 5531 5531 5530 5528 5527 5525 5523 5521 5519 5518 5519 5521 5526 5532 5541 5551 5563 5577 5593 5610
5550 5544 5538 5533 5531 5530 5530 5529 5529 5529 5528 5527 5527 5526 5526 5526 5526 5526 5526 5526 5525 5524 5522 5519 5516 5513 5510 5508 5507 5510 5514 5521 5529 5540 5552 5566 5582 5601
5539 5533 5528 5524 5521 5520 5521 5521 5522 5522 5521 5521 5521 5521 5520 5520 5521 5521 5521 5521 5521 5520 5517 5514 5510 5505 5501 5498 5497 5499 5505 5513 5521 5531 5543 5558 5575 5594
5530 5524 5519 5515 5513 5512 5513 5514 5515 5515 5516 5516 5515 5515 5515 5516 5516 5517 5518 5519 5518 5517 5514 5510 5505 5500 5495 5492 5492 5494 5500 5507 5516 5526 5538 5553 5570 5589
5521 5516 5511 5508 5506 5505 5506 5507 5509 5510 5511 5511 5511 5511 5512 5512 5513 5514 5516 5517 5516 5514 5511 5508 5503 5498 5494 5491 5491 5494 5499 5506 5514 5524 5537 5552 5569 5588
5512 5507 5504 5501 5499 5499 5501 5502 5504 5505 5506 5507 5508 5508 5509 5510 5511 5513 5515 5515 5515 5513 5511 5507 5503 5500 5497 5495 5495 5497 5502 5508 5517 5527 5540 5555 5572 5589
5503 5500 5497 5494 5493 5494 5496 5498 5500 5502 5504 5505 5506 5507 5507 5509 5510 5513 5515 5515 5515 5514 5512 5510 5507 5506 5505 5503 5503 5504 5509 5515 5524 5535 5548 5563 5578 5593
5496 5493 5490 5489 5489 5490 5492 5495 5498 5500 5502 5504 5506 5507 5508 5509 5511 5513 5515 5516 5516 5516 5515 5514 5513 5513 5514 5514 5514 5515 5519 5525 5534 5545 5558 5571 5586 5598
5490 5487 5485 5484 5485 5487 5490 5493 5496 5499 5502 5504 5506 5507 5509 5511 5513 5514 5516 5517 5518 5518 5519 5519 5519 5520 5523 5524 5525 5528 5533 5539 5547 5556 5567 5579 5591 5603
5486 5483 5482 5482 5484 5486 5489 5492 5496 5499 5502 5505 5507 5509 5510 5512 5514 5516 5518 5519 5520 5521 5523 5524 5525 5527 5531 5535 5537 5540 5545 5552 5560 5568 5577 5586 5596 5605
5483 5481 5480 5481 5483 5486 5489 5493 5496 5500 5503 5506 5509 5510 5512 5514 5516 5518 5519 5521 5522 5525 5527 5529 5532 5534 5538 5543 5547 5551 5557 5562 5569 5577 5585 5593 5601 5609
5482 5481 5481 5482 5484 5487 5491 5494 5498 5501 5505 5508 5510 5512 5514 5516 5518 5520 5521 5523 5526 5529 5532 5535 5538 5542 5546 5551 5556 5561 5566 5572 5578 5585 5592 5598 5604 5611
5483 5482 5483 5484 5486 5489 5493 5497 5500 5504 5507 5510 5512 5514 5516 5519 5520 5522 5524 5527 5530 5534 5538 5541 5545 5548 5552 5558 5563 5568 5573 5579 5584 5590 5596 5602 5607 5612
5485 5485 5485 5486 5489 5492 5496 5500 5504 5507 5510 5513 5515 5517 5520 5521 5523 5525 5528 5531 5535 5539 5543 5547 5551 5555 5559 5563 5568 5573 5578 5583 5588 5593 5598 5603 5608 5612
5488 5488 5488 5490 5492 5495 5499 5503 5507 5511 5513 5516 5519 5521 5523 5525 5527 5529 5532 5535 5539 5544 5548 5552 5556 5561 5565 5569 5572 5576 5581 5586 5590 5595 5599 5603 5608 5612
5492 5491 5492 5493 5496 5499 5503 5507 5510 5514 5517 5520 5522 5525 5527 5529 5531 5534 5537 5540 5545 5549 5553 5557 5561 5564 5568 5573 5578 5581 5583 5587 5591 5595 5600 5604 5609 5614
5495 5495 5496 5497 5500 5503 5506 5510 5513 5517 5520 5523 5526 5528 5531 5533 5536 5539 5542 5545 5549 5554 5558 5561 5565 5568 5571 5575 5579 5583 5586 5589 5592 5595 5600 5605 5610 5615
5498 5499 5499 5501 5503 5506 5509 5513 5516 5519 5523 5526 5529 5532 5534 5537 5540 5543 5546 5550 5554 5557 5561 5565 5568 5571 5574 5577 5580 5583 5587 5591 5596 5600 5604 5608 5612 5616
5502 5502 5503 5505 5507 5509 5512 5515 5518 5522 5525 5528 5532 5535 5538 5541 5544 5547 5550 5553 5557 5560 5563 5567 5570 5573 5576 5578 5581 5584 5589 5593 5598 5602 5607 5611 5615 5619